Location: Arapaho Elementary School
(32.9607°N, 96.7625°W)
Time: 02:57:32
(UTC+00:00)

CZ-2C R/B - Pass Details

Date: 07 July 2022
Orbit: 783 x 871 km, 98.2° (Epoch: 14 August)

Event Time Altitude Azimuth Distance (km) Brightness Sun altitude
Rises 10:25:57 0° 150° (SSE) 3,409 5.8 -11.3°
Reaches altitude 10° 10:28:23 10° 144° (SE) 2,487 5.2 -10.9°
Maximum altitude 10:33:39 46° 72° (ENE) 1,156 4.0 -10.0°
Drops below altitude 10° 10:38:58 10° 1° (N) 2,522 5.7 -9.1°
Sets 10:41:27 0° 356° (N) 3,464 6.3 -8.7°
